Zurück zum Katalog

BEIDOU 3M10

AktivNavigationMEO
NORAD 43582·PAYLOAD·🇨🇳 China

Gestartet Jul 29, 2018 von Xichang Satellite Launch Center

Loading…

Nächste Überflüge (nächste 24 Stunden)

TLE

AktuellSource: CelesTrak SupGP

Epoche: Sep 14, 2026, 00:00 UTC

1 43582C 18062B   26257.00000000  .00000000  00000+0  00000+0 0  2576
2 43582  54.0821 179.2760 0006680  32.0142 257.2271  1.86228155    13

Verfolge BEIDOU 3M10 in Echtzeit mit AllMySat

Download on the App Store